Weather History for 93119 - November, 2013

Change the Weather History Date:

Saturday, November 9, 2013

  Actual Average Record
Temperature  
Mean Temperature 62 °F -  
Max Temperature 66 °F 65 °F - ()
Min Temperature 59 °F 54 °F - ()
Degree Days  
Heating Degree Days 2    
Growing Degree Days 12 (Base 50)    
Moisture  
Dew Point 55 °F    
Average Humidity 80    
Maximum Humidity 88    
Minimum Humidity 72    
Precipitation  
Precipitation 0.00 in 0.11 in - ()
Sea Level Pressure  
Sea Level Pressure 29.91 in    
Wind  
Wind Speed 12 mph ()    
Max Wind Speed 17 mph    
Max Gust Speed -    
Visibility 6.2 miles    
Events      
T = Trace of Precipitation, MM = Missing Value Source: Averaged Metar Reports

Daily Weather History Graph

Daily Weather History Graph

Search for Another Location

Airport or City:

Trip Planner

Search our weather history database for the weather conditions in past years. The results will help you decide how hot, cold, wet, or windy it might be!

Date:

Astronomy

Nov. 09, 2013 Rise Set
Actual Time 6:07 AM NZDT 8:02 PM NZDT
Civil Twilight 5:39 AM NZDT 8:30 PM NZDT
Nautical Twilight 5:04 AM NZDT 9:05 PM NZDT
Astronomical Twilight 4:28 AM NZDT 9:41 PM NZDT
Moon 11:22 AM NZDT (11/9) 12:35 AM NZDT (11/9)
Length of Visible Light 14h 51m
Length of Day
13h 54m
Waxing Crescent, 35% of the Moon is Illuminated
Nov 9
Waxing Crescent
Nov 10
First Quarter
Nov 18
Full
Nov 26
Last Quarter
Dec 3
New

Hourly Weather History & Observations

Time (NZDT) Temp. Dew Point Humidity Pressure Visibility Wind Dir Wind Speed Gust Speed Precip Events Conditions
12:00 AM 60.8 °F 55.4 °F 82% 29.86 in 6.2 mi SW 11.5 mph - N/A   Overcast
12:30 AM 60.8 °F 55.4 °F 82% 29.86 in 6.2 mi SW 13.8 mph - N/A   Overcast
1:00 AM 59.0 °F 55.4 °F 88% 29.86 in 6.2 mi SW 15.0 mph - N/A   Overcast
1:30 AM 59.0 °F 55.4 °F 88% 29.86 in 6.2 mi SSW 15.0 mph - N/A   Overcast
2:00 AM 59.0 °F 55.4 °F 88% 29.86 in 6.2 mi SSW 13.8 mph - N/A   Overcast
2:30 AM 59.0 °F 55.4 °F 88% 29.86 in 6.2 mi SW 16.1 mph - N/A   Overcast
3:00 AM 59.0 °F 55.4 °F 88% 29.86 in 6.2 mi SW 16.1 mph - N/A   Overcast
3:30 AM 59.0 °F 55.4 °F 88% 29.86 in 6.2 mi SW 15.0 mph - N/A   Overcast
4:00 AM 59.0 °F 55.4 °F 88% 29.86 in 6.2 mi SW 17.3 mph - N/A   Overcast
4:30 AM 59.0 °F 55.4 °F 88% 29.86 in 6.2 mi SW 16.1 mph - N/A   Overcast
5:00 AM 59.0 °F 55.4 °F 88% 29.86 in 5.6 mi SSW 15.0 mph - N/A   Overcast
5:30 AM 59.0 °F 53.6 °F 82% 29.86 in 6.2 mi SW 15.0 mph - N/A   Overcast
6:00 AM 59.0 °F 53.6 °F 82% 29.86 in 6.2 mi SW 15.0 mph - N/A   Overcast
6:30 AM 59.0 °F 53.6 °F 82% 29.89 in 6.2 mi SW 11.5 mph - N/A   Overcast
7:00 AM 59.0 °F 53.6 °F 82% 29.89 in 6.2 mi SW 11.5 mph - N/A   Overcast
7:30 AM 59.0 °F 53.6 °F 82% 29.89 in 6.2 mi SW 11.5 mph - N/A   Overcast
8:00 AM 59.0 °F 53.6 °F 82% 29.89 in 6.2 mi SW 13.8 mph - N/A   Overcast
8:30 AM 60.8 °F 53.6 °F 77% 29.92 in 6.2 mi SSW 10.4 mph - N/A   Overcast
9:00 AM 60.8 °F 53.6 °F 77% 29.92 in 6.2 mi SW 11.5 mph - N/A   Overcast
9:30 AM 60.8 °F 55.4 °F 82% 29.92 in 6.2 mi WSW 12.7 mph - N/A   Overcast
10:00 AM 60.8 °F 55.4 °F 82% 29.92 in 6.2 mi WSW 12.7 mph - N/A   Overcast
10:30 AM 62.6 °F 55.4 °F 77% 29.92 in 6.2 mi SW 11.5 mph - N/A   Overcast
11:00 AM 62.6 °F 53.6 °F 72% 29.92 in 6.2 mi SW 11.5 mph - N/A   Overcast
11:30 AM 64.4 °F 55.4 °F 73% 29.92 in 6.2 mi WSW 12.7 mph - N/A   Overcast
12:00 PM 64.4 °F 57.2 °F 77% 29.92 in 6.2 mi WSW 13.8 mph - N/A   Overcast
12:30 PM 64.4 °F 55.4 °F 73% 29.95 in 6.2 mi WSW 15.0 mph - N/A   Overcast
1:00 PM 64.4 °F 55.4 °F 73% 29.92 in 6.2 mi WSW 13.8 mph - N/A   Scattered Clouds
1:30 PM 64.4 °F 57.2 °F 77% 29.92 in 6.2 mi SW 12.7 mph - N/A   Mostly Cloudy
2:00 PM 64.4 °F 57.2 °F 77% 29.95 in 6.2 mi SW 12.7 mph - N/A   Mostly Cloudy
2:30 PM 66.2 °F 57.2 °F 73% 29.92 in 6.2 mi SW 13.8 mph - N/A   Mostly Cloudy
3:00 PM 64.4 °F 55.4 °F 73% 29.92 in 6.2 mi WSW 15.0 mph - N/A   Mostly Cloudy
3:30 PM 64.4 °F 55.4 °F 73% 29.92 in 6.2 mi SW 15.0 mph - N/A   Overcast
4:00 PM 62.6 °F 55.4 °F 77% 29.92 in 6.2 mi WSW 15.0 mph - N/A   Overcast
4:30 PM 62.6 °F 55.4 °F 77% 29.92 in 6.2 mi SW 13.8 mph - N/A   Overcast
5:00 PM 62.6 °F 55.4 °F 77% 29.92 in 6.2 mi WSW 13.8 mph - N/A   Overcast
5:30 PM 64.4 °F 55.4 °F 73% 29.95 in 6.2 mi WSW 15.0 mph - N/A   Overcast
6:00 PM 62.6 °F 55.4 °F 77% 29.95 in 6.2 mi WSW 13.8 mph - N/A   Overcast
6:30 PM 62.6 °F 53.6 °F 72% 29.95 in 6.2 mi WSW 13.8 mph - N/A   Overcast
7:00 PM 60.8 °F 55.4 °F 82% 29.95 in 6.2 mi SW 11.5 mph - N/A   Overcast
7:30 PM 60.8 °F 53.6 °F 77% 29.95 in 6.2 mi WSW 12.7 mph - N/A   Overcast
8:00 PM 60.8 °F 55.4 °F 82% 29.95 in 6.2 mi WSW 12.7 mph - N/A   Overcast
8:30 PM 60.8 °F 55.4 °F 82% 29.95 in 6.2 mi WSW 13.8 mph - N/A   Overcast
9:00 PM 60.8 °F 55.4 °F 82% 29.95 in 6.2 mi SW 11.5 mph - N/A   Mostly Cloudy
9:30 PM 60.8 °F 55.4 °F 82% 29.95 in 6.2 mi SW 8.1 mph - N/A   Overcast
10:00 PM 60.8 °F 55.4 °F 82% 29.95 in 6.2 mi SW 8.1 mph - N/A   Overcast
10:30 PM 60.8 °F 55.4 °F 82% 29.98 in 6.2 mi WSW 9.2 mph - N/A   Overcast
11:00 PM 60.8 °F 55.4 °F 82% 29.95 in 6.2 mi WSW 6.9 mph - N/A   Overcast
11:30 PM 60.8 °F 55.4 °F 82% 29.95 in 6.2 mi WSW 9.2 mph - N/A   Overcast